Location: Beetenbrück
(52.8113°N, 9.5946°E)
Time: 21:19:10
(UTC+00:00)

Cosmos 1821 Rocket - Pass Details

Date: 14 April 2026
Orbit: 945 x 1003 km, 82.9° (Epoch: 12 May)

Event Time Altitude Azimuth Distance (km) Brightness Sun altitude
Exits shadow 19:49:04 - 171° (S) 3,145 6.2 -12.9°
Reaches altitude 10° 19:50:14 10° 169° (S) 2,715 5.9 -13.1°
Maximum altitude 19:56:18 57° 93° (E) 1,151 4.1 -13.8°
Drops below altitude 10° 20:02:30 10° 16° (NNE) 2,771 6.7 -14.5°
Sets 20:05:05 0° 13° (NNE) 3,730 7.4 -14.8°
